Погода в Бережанах

Украина / Тернопольская область     49°26′49″N   24°56′27″E
темп.,
°C
ветер,
м/с
пор.,
м/с
влажн.,
%
обл.,
%
осадки,
мм/ч
давл.,
гПа
погр.,
м
22 мая, вс
вс2200:00+9з38835 0.0 1013164
03:00+10зсз715790 0.0 1011731
06:00+10зсз9158332 0.0 1011903
09:00+10зсз9158279 0.3 10111236
12:00+12сз10147249 0.5 10101461
15:00+12сз9147299 0.8 10111449
18:00+12ссз7127099 0.1 10111265
21:00+10ссз257999 0.1 1011229
23 мая, пн
пн2300:00+7зсз229170 0.0 101214
03:00+8зсз3793100 0.3 1011284
06:00+7зсз4119760 0.2 1012332
09:00+10сз5882100 0.2 1012781
12:00+9сз4692100 0.2 1013627
15:00+12сз5578100 0.6 1013931
18:00+13сз337166 0.3 1012948
21:00+10с228342 0.4 101331
24 мая, вт
вт2400:00+8вюв118917 0.0 101410
03:00+7вюв22880 0.0 101410
06:00+6вюв22925 0.0 101433
09:00+12юв45755 0.0 1014524
12:00+16юв555871 0.0 10131211
15:00+18ююв5651100 0.0 10121535
18:00+18ююв5659100 0.0 10121254
21:00+13юв377988 0.0 1012118
25 мая, ср
ср2500:00+11юв357764 0.0 101373
03:00+9юв3485100 0.0 101461
06:00+9ююв349161 0.0 101465
09:00+15ю2274100 0.0 1014298
12:00+19юз2264100 0.0 1013731
15:00+22ююз2253100 0.0 10121254
18:00+22ю335726 0.0 10111118
21:00+17ююв347966 0.0 101151
26 мая, чт
чт2600:00+16зюз4891100 2.3 1011182
03:00+14з51395100 2.9 1011531
06:00+13зсз71393100 0.1 1013800
09:00+13зсз7118693 0.1 1014747
12:00+16зсз7106939 0.0 10151224
15:00+17зсз814708 0.6 10141536
18:00+18зсз8166497 0.1 10141720
21:00+14зсз714695 0.2 10151110